Location: Home
(42.5358°N, 72.7383°W)
Time: 08:43:20
(UTC-05:00)

Vanguard 1 Rocket - All Passes

Search period start: 09 December 2021 00:00
Search period end: 19 December 2021 00:00
Orbit: 650 x 4225 km, 34.3° (Epoch: 08 December)

Date Brightness Start Highest point End Pass type
(mag) Time Alt. Az. Time Alt. Az. Time Alt. Az.
09 Dec - 02:11:19 10° WSW 02:20:01 57° SSE 02:37:10 10° E visible
09 Dec - 04:35:34 10° W 04:47:57 58° SSW 05:10:16 10° ESE visible
09 Dec - 07:02:05 10° W 07:17:29 37° SSW 07:39:16 10° SSE daylight
09 Dec - 09:37:30 10° WSW 09:46:34 13° SW 09:56:21 10° SSW daylight
09 Dec - 22:41:40 10° SSE 22:44:41 13° SE 22:48:25 10° ESE night (unlit)
10 Dec - 01:01:12 10° SW 01:08:20 46° SSE 01:21:44 10° E visible
10 Dec - 03:24:38 10° W 03:34:55 60° S 03:54:49 10° ESE visible
10 Dec - 05:49:52 10° W 06:03:45 46° SSW 06:26:05 10° SE visible
10 Dec - 08:19:28 10° W 08:33:10 22° SW 08:49:56 10° S daylight
10 Dec - 23:51:37 10° SSW 23:57:18 32° SSE 00:06:48 10° E visible
11 Dec - 02:14:04 10° WSW 02:22:32 58° S 02:39:13 10° ESE visible
11 Dec - 04:38:25 10° W 04:50:19 52° SSW 05:11:42 10° SE visible
11 Dec - 07:05:23 10° W 07:19:34 31° SSW 07:39:22 10° SSE daylight
11 Dec - 22:43:00 10° S 22:46:49 17° SE 22:51:58 10° E night (unlit)
12 Dec - 01:03:51 10° WSW 01:10:48 50° SSE 01:23:58 10° E visible
12 Dec - 03:27:28 10° W 03:37:25 57° S 03:56:34 10° ESE visible
12 Dec - 05:52:55 10° W 06:06:01 39° SSW 06:26:48 10° SSE visible
12 Dec - 08:24:29 10° WSW 08:35:09 16° SW 08:47:46 10° SSW daylight
12 Dec - 23:54:03 10° SW 23:59:41 36° SSE 00:09:18 10° E visible
13 Dec - 02:16:53 10° WSW 02:25:06 57° S 02:41:14 10° ESE visible
13 Dec - 04:41:21 10° W 04:52:44 46° SSW 05:12:53 10° SE visible
13 Dec - 07:09:06 10° W 07:21:42 25° SW 07:38:49 10° S daylight
13 Dec - 22:44:54 10° SSW 22:49:05 22° SE 22:55:02 10° E night (unlit)
14 Dec - 01:06:37 10° WSW 01:13:21 51° S 01:26:11 10° E visible
14 Dec - 03:30:21 10° W 03:39:57 52° S 03:58:10 10° ESE visible
14 Dec - 05:56:10 10° W 06:08:19 32° SSW 06:27:06 10° SSE visible
14 Dec - 08:33:11 10° SW 08:37:17 11° SW 08:41:39 10° SSW daylight
14 Dec - 23:56:39 10° SW 00:02:10 40° SSE 00:11:44 10° E visible
15 Dec - 02:19:45 10° WSW 02:27:41 54° S 02:43:09 10° ESE visible
15 Dec - 04:44:24 10° W 04:55:11 39° SSW 05:13:48 10° SE visible
15 Dec - 07:13:34 10° WSW 07:23:56 18° SW 07:37:17 10° S daylight
15 Dec - 22:47:07 10° SSW 22:51:28 26° SSE 22:57:51 10° E night (unlit)
16 Dec - 01:09:25 10° WSW 01:15:59 51° S 01:28:22 10° ESE visible
16 Dec - 03:33:18 10° W 03:42:30 45° SSW 03:59:35 10° SE visible
16 Dec - 05:59:44 10° W 06:10:41 26° SSW 06:26:51 10° SSE visible
16 Dec - 21:38:42 10° S 21:41:03 13° SE 21:43:47 10° ESE night (unlit)
16 Dec - 23:59:20 10° SW 00:04:45 43° SSE 00:14:08 10° E visible
17 Dec - 02:22:39 10° W 02:30:19 49° S 02:44:58 10° ESE visible
17 Dec - 04:47:36 10° W 04:57:41 33° SSW 05:14:21 10° SSE visible
17 Dec - 07:19:59 10° WSW 07:26:16 12° SW 07:33:35 10° SSW daylight
17 Dec - 22:49:32 10° SW 22:53:57 30° SSE 23:00:32 10° E night (unlit)
18 Dec - 01:12:16 10° WSW 01:18:38 49° S 01:30:29 10° ESE visible
18 Dec - 03:36:21 10° W 03:45:05 39° SSW 04:00:44 10° SE visible
18 Dec - 06:03:56 10° WSW 06:13:07 19° SSW 06:25:47 10° S visible
18 Dec - 21:40:21 10° S 21:43:27 17° SSE 21:47:14 10° ESE night (unlit)
